| time (UTC) | temp F | wind direction | speed MPH | gust MPH | rain 1hr in | rain 24hr in | rain mn in | humidity % | barometer mb |
| 20260901164801 | 119 | 82 | 2.0 | 8.0 | 0.00 | 1.10 | 0.00 | 100 | 1018.2 |
| 20260901164301 | 118 | 7 | 6.0 | 11.0 | 0.00 | 1.10 | 0.00 | 100 | 1018.3 |
| 20260901163801 | 118 | 50 | 6.0 | 12.0 | 0.00 | 1.10 | 0.00 | 100 | 1018.3 |
| 20260901163301 | 116 | 56 | 1.0 | 8.0 | 0.00 | 1.10 | 0.00 | 100 | 1018.4 |
| 20260901162937 | 114 | 56 | 5.0 | 6.0 | 0.00 | 1.10 | 0.00 | 100 | 1018.4 |
| 20260901162801 | 114 | 56 | 5.0 | 6.0 | 0.00 | 1.10 | 0.00 | 100 | 1018.4 |
| 20260901162305 | 111 | 142 | 2.0 | 6.0 | 0.00 | 1.10 | 0.00 | 100 | 1018.5 |
| 20260901161801 | 113 | 85 | 3.0 | 7.0 | 0.00 | 1.10 | 0.00 | 100 | 1018.5 |
| 20260901161302 | 112 | 50 | 4.0 | 9.0 | 0.00 | 1.10 | 0.00 | 100 | 1018.6 |
| 20260901160802 | 109 | 22 | 3.0 | 9.0 | 0.00 | 1.10 | 0.00 | 100 | 1018.6 |
| 20260901160302 | 100 | 16 | 5.0 | 9.0 | 0.00 | 1.10 | 0.00 | 100 | 1018.6 |
| 20260901155802 | 96 | 52 | 0.0 | 4.0 | 0.00 | 1.10 | 0.00 | 100 | 1018.7 |
| 20260901155302 | 95 | 8 | 2.0 | 8.0 | 0.00 | 1.10 | 0.00 | 100 | 1018.8 |
| 20260901154802 | 100 | 23 | 5.0 | 7.0 | 0.00 | 1.10 | 0.00 | 100 | 1018.8 |
| 20260901154302 | 97 | 358 | 6.0 | 8.0 | 0.00 | 1.10 | 0.00 | 100 | 1018.8 |
| 20260901153802 | 97 | 50 | 2.0 | 7.0 | 0.00 | 1.10 | 0.00 | 100 | 1018.8 |
| 20260901153302 | 103 | 358 | 5.0 | 7.0 | 0.00 | 1.10 | 0.00 | 100 | 1018.7 |
| 20260901153130 | 98 | 18 | 6.0 | 6.0 | 0.00 | 1.10 | 0.00 | 100 | 1018.8 |
| 20260901152802 | 98 | 18 | 6.0 | 6.0 | 0.00 | 1.10 | 0.00 | 100 | 1018.8 |
| 20260901152305 | 95 | 32 | 5.0 | 8.0 | 0.00 | 1.10 | 0.00 | 100 | 1018.7 |
| 20260901152027 | 98 | 54 | 5.0 | 6.0 | 0.00 | 1.10 | 0.00 | 100 | 1018.8 |
| 20260901151802 | 98 | 54 | 5.0 | 6.0 | 0.00 | 1.10 | 0.00 | 100 | 1018.8 |
| 20260901151302 | 96 | 358 | 6.0 | 8.0 | 0.00 | 1.10 | 0.00 | 100 | 1018.9 |
| 20260901150959 | 94 | 343 | 6.0 | 6.0 | 0.00 | 1.10 | 0.00 | 100 | 1018.9 |
| 20260901150802 | 94 | 343 | 6.0 | 6.0 | 0.00 | 1.10 | 0.00 | 100 | 1018.9 |
| 20260901150302 | 93 | 37 | 1.0 | 5.0 | 0.00 | 1.10 | 0.00 | 100 | 1018.8 |
| 20260901145802 | 92 | 22 | 4.0 | 7.0 | 0.00 | 1.10 | 0.00 | 100 | 1018.8 |
| 20260901145306 | 91 | 21 | 5.0 | 5.0 | 0.00 | 1.10 | 0.00 | 100 | 1018.8 |
| 20260901145026 | 90 | 57 | 0.0 | 5.0 | 0.00 | 1.10 | 0.00 | 100 | 1018.8 |
| 20260901144802 | 90 | 57 | 0.0 | 5.0 | 0.00 | 1.10 | 0.00 | 100 | 1018.8 |
| 20260901144302 | 90 | 7 | 0.0 | 3.0 | 0.00 | 1.10 | 0.00 | 100 | 1018.8 |
| 20260901143802 | 89 | 23 | 3.0 | 6.0 | 0.00 | 1.10 | 0.00 | 100 | 1018.8 |
| 20260901143302 | 89 | 80 | 0.0 | 3.0 | 0.00 | 1.10 | 0.00 | 100 | 1018.6 |
| 20260901142802 | 87 | 42 | 1.0 | 6.0 | 0.00 | 1.10 | 0.00 | 100 | 1018.5 |
| 20260901142305 | 90 | 53 | 4.0 | 7.0 | 0.00 | 1.10 | 0.00 | 100 | 1018.5 |
| 20260901142129 | 90 | 64 | 4.0 | 9.0 | 0.00 | 1.10 | 0.00 | 100 | 1018.5 |
| 20260901141802 | 90 | 64 | 4.0 | 9.0 | 0.00 | 1.10 | 0.00 | 100 | 1018.5 |
| 20260901141302 | 90 | 116 | 4.0 | 8.0 | 0.00 | 1.10 | 0.00 | 100 | 1018.5 |
| 20260901140802 | 89 | 67 | 4.0 | 8.0 | 0.00 | 1.10 | 0.00 | 100 | 1018.5 |
| 20260901140302 | 88 | 118 | 2.0 | 6.0 | 0.00 | 1.10 | 0.00 | 100 | 1018.4 |
| 20260901140012 | 83 | 61 | 4.0 | 6.0 | 0.00 | 1.10 | 0.00 | 100 | 1018.3 |
| 20260901135802 | 83 | 61 | 4.0 | 6.0 | 0.00 | 1.10 | 0.00 | 100 | 1018.3 |
| 20260901135305 | 84 | 101 | 3.0 | 6.0 | 0.00 | 1.10 | 0.00 | 100 | 1018.4 |
| 20260901135043 | 87 | 104 | 4.0 | 6.0 | 0.00 | 1.10 | 0.00 | 100 | 1018.4 |
| 20260901134802 | 87 | 104 | 4.0 | 6.0 | 0.00 | 1.10 | 0.00 | 100 | 1018.4 |
| 20260901134302 | 87 | 53 | 4.0 | 5.0 | 0.00 | 1.10 | 0.00 | 100 | 1018.4 |
| 20260901133802 | 86 | 77 | 4.0 | 5.0 | 0.00 | 1.10 | 0.00 | 100 | 1018.3 |
| 20260901133302 | 87 | 95 | 2.0 | 7.0 | 0.00 | 1.10 | 0.00 | 100 | 1018.2 |
| 20260901133103 | 87 | 40 | 2.0 | 6.0 | 0.00 | 1.10 | 0.00 | 100 | 1018.0 |
| 20260901132802 | 87 | 40 | 2.0 | 6.0 | 0.00 | 1.10 | 0.00 | 100 | 1018.0 |
| 20260901132306 | 85 | 50 | 4.0 | 5.0 | 0.00 | 1.10 | 0.00 | 100 | 1018.1 |
| 20260901131802 | 83 | 85 | 1.0 | 6.0 | 0.00 | 1.10 | 0.00 | 100 | 1018.1 |
| 20260901131302 | 85 | 53 | 3.0 | 4.0 | 0.00 | 1.10 | 0.00 | 100 | 1018.0 |
| 20260901131055 | 81 | 53 | 2.0 | 5.0 | 0.00 | 1.10 | 0.00 | 100 | 1017.9 |
| 20260901130802 | 81 | 53 | 2.0 | 5.0 | 0.00 | 1.10 | 0.00 | 100 | 1017.9 |
| 20260901130302 | 81 | 71 | 3.0 | 5.0 | 0.00 | 1.10 | 0.00 | 100 | 1017.9 |
| 20260901130043 | 82 | 53 | 1.0 | 5.0 | 0.00 | 1.10 | 0.00 | 100 | 1017.9 |
| 20260901125802 | 82 | 53 | 1.0 | 5.0 | 0.00 | 1.10 | 0.00 | 100 | 1017.9 |
| 20260901125308 | 82 | 30 | 0.0 | 4.0 | 0.00 | 1.10 | 0.00 | 100 | 1017.9 |
| 20260901124802 | 81 | 26 | 0.0 | 3.0 | 0.00 | 1.10 | 0.00 | 100 | 1018.0 |
| 20260901124302 | 81 | 21 | 2.0 | 2.0 | 0.00 | 1.10 | 0.00 | 100 | 1018.0 |
| 20260901123921 | 79 | 35 | 0.0 | 3.0 | 0.00 | 1.10 | 0.00 | 100 | 1018.0 |
| 20260901123802 | 79 | 35 | 0.0 | 3.0 | 0.00 | 1.10 | 0.00 | 100 | 1018.0 |
| 20260901123302 | 79 | 23 | 0.0 | 4.0 | 0.00 | 1.10 | 0.00 | 100 | 1017.9 |
| 20260901122802 | 78 | 29 | 0.0 | 0.0 | 0.00 | 1.10 | 0.00 | 100 | 1017.8 |
| 20260901122306 | 78 | 29 | 0.0 | 2.0 | 0.00 | 1.10 | 0.00 | 100 | 1017.8 |
| 20260901121802 | 78 | 28 | 0.0 | 2.0 | 0.00 | 1.10 | 0.00 | 100 | 1017.8 |
| 20260901121302 | 78 | 36 | 1.0 | 4.0 | 0.00 | 1.10 | 0.00 | 100 | 1017.8 |
| 20260901121015 | 77 | 29 | 0.0 | 5.0 | 0.00 | 1.10 | 0.00 | 100 | 1017.7 |
| 20260901120803 | 77 | 29 | 0.0 | 5.0 | 0.00 | 1.10 | 0.00 | 100 | 1017.7 |
| 20260901120303 | 77 | 15 | 0.0 | 3.0 | 0.00 | 1.10 | 0.00 | 100 | 1017.7 |
| 20260901115803 | 77 | 8 | 0.0 | 4.0 | 0.00 | 1.10 | 0.00 | 100 | 1017.7 |
| 20260901115306 | 77 | 52 | 0.0 | 4.0 | 0.00 | 1.10 | 0.00 | 100 | 1017.7 |
| 20260901114803 | 77 | 7 | 0.0 | 0.0 | 0.00 | 1.10 | 0.00 | 100 | 1017.6 |
| 20260901114303 | 77 | 7 | 0.0 | 1.0 | 0.00 | 1.10 | 0.00 | 100 | 1017.5 |
| 20260901113803 | 76 | 7 | 1.0 | 1.0 | 0.00 | 1.10 | 0.00 | 100 | 1017.5 |
| 20260901113303 | 76 | 54 | 1.0 | 2.0 | 0.00 | 1.10 | 0.00 | 100 | 1017.4 |
| 20260901112844 | 76 | 61 | 0.0 | 1.0 | 0.00 | 1.10 | 0.00 | 100 | 1017.4 |
| 20260901112803 | 76 | 61 | 0.0 | 1.0 | 0.00 | 1.10 | 0.00 | 100 | 1017.4 |
| 20260901112306 | 76 | 45 | 0.0 | 0.0 | 0.00 | 1.10 | 0.00 | 100 | 1017.3 |
| 20260901112055 | 76 | 45 | 0.0 | 0.0 | 0.00 | 1.10 | 0.00 | 100 | 1017.3 |
| 20260901111803 | 76 | 45 | 0.0 | 0.0 | 0.00 | 1.10 | 0.00 | 100 | 1017.3 |
| 20260901111303 | 76 | 45 | 0.0 | 0.0 | 0.00 | 1.10 | 0.00 | 100 | 1017.2 |
| 20260901110803 | 76 | 45 | 0.0 | 0.0 | 0.00 | 1.10 | 0.00 | 100 | 1017.2 |
| 20260901110303 | 76 | 45 | 0.0 | 0.0 | 0.00 | 1.10 | 0.00 | 100 | 1017.2 |
| 20260901105803 | 76 | 45 | 0.0 | 0.0 | 0.00 | 1.10 | 0.00 | 100 | 1017.1 |
| 20260901105305 | 76 | 45 | 0.0 | 0.0 | 0.00 | 1.10 | 0.00 | 100 | 1017.2 |
| 20260901105054 | 76 | 45 | 0.0 | 0.0 | 0.00 | 1.10 | 0.00 | 100 | 1017.2 |
| 20260901104803 | 76 | 45 | 0.0 | 0.0 | 0.00 | 1.10 | 0.00 | 100 | 1017.2 |
| 20260901104303 | 76 | 45 | 0.0 | 0.0 | 0.00 | 1.10 | 0.00 | 100 | 1017.1 |
| 20260901103803 | 76 | 45 | 0.0 | 0.0 | 0.00 | 1.10 | 0.00 | 100 | 1017.1 |
| 20260901103303 | 76 | 45 | 0.0 | 0.0 | 0.00 | 1.10 | 0.00 | 100 | 1017.1 |
| 20260901103215 | 76 | 45 | 0.0 | 0.0 | 0.00 | 1.10 | 0.00 | 100 | 1017.0 |
| 20260901102847 | 76 | 45 | 0.0 | 0.0 | 0.00 | 1.10 | 0.00 | 100 | 1017.0 |
| 20260901102803 | 76 | 45 | 0.0 | 0.0 | 0.00 | 1.10 | 0.00 | 100 | 1017.0 |
| 20260901102306 | 76 | 45 | 0.0 | 0.0 | 0.00 | 1.10 | 0.00 | 100 | 1017.0 |
| 20260901101803 | 76 | 45 | 0.0 | 0.0 | 0.00 | 1.10 | 0.00 | 100 | 1017.0 |
| 20260901101303 | 76 | 45 | 0.0 | 0.0 | 0.00 | 1.10 | 0.00 | 100 | 1017.0 |
| 20260901100803 | 76 | 45 | 0.0 | 0.0 | 0.00 | 1.10 | 0.00 | 100 | 1017.0 |
| 20260901100303 | 76 | 45 | 0.0 | 0.0 | 0.00 | 1.10 | 0.00 | 100 | 1017.0 |
| 20260901095803 | 76 | 45 | 0.0 | 0.0 | 0.00 | 1.10 | 0.00 | 100 | 1017.0 |
| 20260901095306 | 76 | 45 | 0.0 | 1.0 | 0.00 | 1.10 | 0.00 | 100 | 1016.9 |
| 20260901095114 | 76 | 45 | 0.0 | 2.0 | 0.00 | 1.10 | 0.00 | 100 | 1016.9 |
| 20260901094803 | 76 | 45 | 0.0 | 2.0 | 0.00 | 1.10 | 0.00 | 100 | 1016.9 |
| 20260901094303 | 76 | 67 | 0.0 | 0.0 | 0.00 | 1.10 | 0.00 | 100 | 1016.9 |
| 20260901093803 | 76 | 67 | 0.0 | 0.0 | 0.00 | 1.10 | 0.00 | 100 | 1016.9 |
| 20260901093303 | 76 | 67 | 0.0 | 0.0 | 0.00 | 1.10 | 0.00 | 100 | 1016.9 |
| 20260901093055 | 76 | 67 | 0.0 | 0.0 | 0.00 | 1.10 | 0.00 | 100 | 1016.8 |
| 20260901092803 | 76 | 67 | 0.0 | 0.0 | 0.00 | 1.10 | 0.00 | 100 | 1016.8 |
| 20260901092305 | 76 | 67 | 0.0 | 0.0 | 0.00 | 1.10 | 0.00 | 100 | 1016.9 |
| 20260901091803 | 76 | 67 | 0.0 | 0.0 | 0.00 | 1.10 | 0.00 | 100 | 1016.8 |
| 20260901091303 | 76 | 67 | 0.0 | 0.0 | 0.00 | 1.10 | 0.00 | 100 | 1016.8 |
| 20260901090803 | 76 | 67 | 0.0 | 0.0 | 0.00 | 1.10 | 0.00 | 100 | 1016.8 |
| 20260901090303 | 76 | 67 | 0.0 | 0.0 | 0.00 | 1.10 | 0.00 | 100 | 1016.8 |
| 20260901085803 | 76 | 67 | 0.0 | 0.0 | 0.00 | 1.10 | 0.00 | 100 | 1016.8 |
| 20260901085305 | 76 | 67 | 0.0 | 0.0 | 0.00 | 1.10 | 0.00 | 100 | 1016.7 |
| 20260901085029 | 76 | 67 | 0.0 | 0.0 | 0.00 | 1.10 | 0.00 | 100 | 1016.8 |
| 20260901084803 | 76 | 67 | 0.0 | 0.0 | 0.00 | 1.10 | 0.00 | 100 | 1016.8 |
| 20260901084303 | 76 | 67 | 0.0 | 0.0 | 0.00 | 1.10 | 0.00 | 100 | 1016.7 |
| 20260901083803 | 76 | 67 | 0.0 | 0.0 | 0.00 | 1.10 | 0.00 | 100 | 1016.6 |
| 20260901083303 | 76 | 67 | 0.0 | 0.0 | 0.00 | 1.10 | 0.00 | 100 | 1016.7 |
| 20260901082803 | 76 | 67 | 0.0 | 0.0 | 0.00 | 1.10 | 0.00 | 100 | 1016.7 |
| 20260901082306 | 76 | 67 | 0.0 | 0.0 | 0.00 | 1.10 | 0.00 | 100 | 1016.8 |
| 20260901081803 | 76 | 67 | 0.0 | 0.0 | 0.00 | 1.10 | 0.00 | 100 | 1016.8 |
| 20260901081304 | 77 | 67 | 0.0 | 0.0 | 0.00 | 1.10 | 0.00 | 100 | 1016.7 |
| 20260901081038 | 76 | 67 | 0.0 | 0.0 | 0.00 | 1.10 | 0.00 | 100 | 1016.7 |
| 20260901080804 | 76 | 67 | 0.0 | 0.0 | 0.00 | 1.10 | 0.00 | 100 | 1016.7 |
| 20260901080633 | 77 | 67 | 0.0 | 1.0 | 0.00 | 1.10 | 0.00 | 100 | 1016.7 |
| 20260901080304 | 77 | 67 | 0.0 | 1.0 | 0.00 | 1.10 | 0.00 | 100 | 1016.7 |
| 20260901075804 | 77 | 56 | 1.0 | 1.0 | 0.00 | 1.10 | 0.00 | 100 | 1016.7 |
| 20260901075307 | 77 | 45 | 0.0 | 0.0 | 0.00 | 1.10 | 0.00 | 100 | 1016.7 |
| 20260901075035 | 77 | 45 | 0.0 | 0.0 | 0.00 | 1.10 | 0.00 | 100 | 1016.6 |
| 20260901074804 | 77 | 45 | 0.0 | 0.0 | 0.00 | 1.10 | 0.00 | 100 | 1016.6 |
| 20260901074304 | 76 | 45 | 0.0 | 0.0 | 0.00 | 1.10 | 0.00 | 100 | 1016.6 |
| 20260901073804 | 77 | 45 | 0.0 | 0.0 | 0.00 | 1.10 | 0.00 | 100 | 1016.7 |
| 20260901073304 | 77 | 45 | 0.0 | 2.0 | 0.00 | 1.10 | 0.00 | 100 | 1016.7 |
| 20260901072804 | 77 | 54 | 2.0 | 3.0 | 0.00 | 1.10 | 0.00 | 100 | 1016.7 |
| 20260901072308 | 77 | 40 | 0.0 | 1.0 | 0.00 | 1.10 | 0.00 | 100 | 1016.8 |
| 20260901071804 | 77 | 32 | 0.0 | 0.0 | 0.00 | 1.10 | 0.00 | 100 | 1016.7 |
| 20260901071304 | 77 | 32 | 0.0 | 0.0 | 0.00 | 1.10 | 0.00 | 100 | 1016.8 |
| 20260901071034 | 77 | 32 | 0.0 | 0.0 | 0.00 | 1.10 | 0.00 | 100 | 1016.9 |
| 20260901070804 | 77 | 32 | 0.0 | 0.0 | 0.00 | 1.10 | 0.00 | 100 | 1016.9 |
| 20260901070304 | 77 | 32 | 0.0 | 2.0 | 0.00 | 1.10 | 0.00 | 100 | 1017.0 |
| 20260901065804 | 77 | 43 | 1.0 | 4.0 | 0.00 | 1.10 | 0.00 | 100 | 1017.2 |
| 20260901065305 | 77 | 45 | 0.0 | 1.0 | 0.00 | 1.10 | 0.00 | 100 | 1017.1 |
| 20260901065204 | 77 | 26 | 0.0 | 1.0 | 0.00 | 1.10 | 0.00 | 100 | 1017.1 |
| 20260901064804 | 77 | 26 | 0.0 | 1.0 | 0.00 | 1.10 | 0.00 | 100 | 1017.1 |
| 20260901064304 | 77 | 26 | 0.0 | 2.0 | 0.00 | 1.10 | 0.00 | 100 | 1017.2 |
| 20260901063804 | 77 | 35 | 0.0 | 1.0 | 0.00 | 1.10 | 0.00 | 100 | 1017.3 |
| 20260901063304 | 77 | 19 | 0.0 | 4.0 | 0.00 | 1.10 | 0.00 | 100 | 1017.4 |
| 20260901062804 | 77 | 8 | 0.0 | 7.0 | 0.00 | 1.10 | 0.00 | 100 | 1017.4 |
| 20260901062309 | 77 | 40 | 5.0 | 5.0 | 0.00 | 1.10 | 0.00 | 100 | 1017.4 |
| 20260901061804 | 77 | 43 | 0.0 | 5.0 | 0.00 | 1.10 | 0.00 | 100 | 1017.5 |
| 20260901061304 | 77 | 30 | 2.0 | 4.0 | 0.00 | 1.10 | 0.00 | 100 | 1017.5 |
| 20260901060804 | 77 | 39 | 1.0 | 3.0 | 0.00 | 1.10 | 0.00 | 100 | 1017.5 |
| 20260901060304 | 77 | 42 | 1.0 | 4.0 | 0.00 | 1.10 | 0.00 | 100 | 1017.6 |
| 20260901060039 | 77 | 18 | 4.0 | 4.0 | 0.00 | 1.10 | 0.00 | 100 | 1017.6 |
| 20260901055804 | 77 | 18 | 4.0 | 4.0 | 0.00 | 1.10 | 0.00 | 100 | 1017.6 |
| 20260901055306 | 77 | 16 | 0.0 | 0.0 | 0.00 | 1.10 | 0.00 | 100 | 1017.7 |
| 20260901055214 | 77 | 16 | 0.0 | 0.0 | 0.00 | 1.10 | 0.00 | 100 | 1017.8 |
| 20260901054804 | 77 | 16 | 0.0 | 0.0 | 0.00 | 1.10 | 0.00 | 100 | 1017.8 |
| 20260901054304 | 77 | 16 | 0.0 | 0.0 | 0.00 | 1.10 | 0.00 | 100 | 1017.9 |
| 20260901053804 | 77 | 15 | 0.0 | 0.0 | 0.00 | 1.10 | 0.00 | 100 | 1018.0 |
| 20260901053304 | 77 | 15 | 0.0 | 0.0 | 0.00 | 1.10 | 0.00 | 100 | 1018.0 |
| 20260901052804 | 77 | 15 | 0.0 | 0.0 | 0.00 | 1.10 | 0.00 | 100 | 1018.1 |
| 20260901052307 | 77 | 15 | 0.0 | 0.0 | 0.00 | 1.10 | 0.00 | 100 | 1018.2 |
| 20260901052137 | 77 | 15 | 0.0 | 0.0 | 0.00 | 1.10 | 0.00 | 100 | 1018.2 |
| 20260901051804 | 77 | 15 | 0.0 | 0.0 | 0.00 | 1.10 | 0.00 | 100 | 1018.2 |
| 20260901051304 | 77 | 15 | 0.0 | 0.0 | 0.00 | 1.10 | 0.00 | 100 | 1018.3 |
| 20260901050804 | 77 | 15 | 0.0 | 0.0 | 0.00 | 1.10 | 0.00 | 100 | 1018.4 |
| 20260901050304 | 78 | 15 | 0.0 | 0.0 | 0.00 | 1.10 | 0.00 | 100 | 1018.5 |
| 20260901045804 | 77 | 15 | 0.0 | 3.0 | 0.00 | 1.10 | 0.00 | 100 | 1018.6 |
| 20260901045347 | 77 | 70 | 0.0 | 0.0 | 0.00 | 1.10 | 1.10 | 100 | 1018.6 |
| 20260901045306 | 77 | 70 | 0.0 | 0.0 | 0.00 | 1.10 | 1.10 | 100 | 1018.6 |
| 20260901045125 | 77 | 70 | 0.0 | 0.0 | 0.00 | 1.10 | 1.10 | 100 | 1018.6 |
| 20260901044804 | 77 | 70 | 0.0 | 0.0 | 0.00 | 1.10 | 1.10 | 100 | 1018.6 |
| 20260901044304 | 77 | 70 | 0.0 | 0.0 | 0.00 | 1.10 | 1.10 | 100 | 1018.6 |
| 20260901043804 | 78 | 70 | 0.0 | 0.0 | 0.00 | 1.10 | 1.10 | 100 | 1018.6 |
| 20260901043304 | 78 | 70 | 0.0 | 0.0 | 0.00 | 1.10 | 1.10 | 100 | 1018.7 |
| 20260901042804 | 78 | 70 | 0.0 | 0.0 | 0.00 | 1.10 | 1.10 | 100 | 1018.6 |
| 20260901042306 | 78 | 70 | 0.0 | 0.0 | 0.00 | 1.10 | 1.10 | 100 | 1018.7 |
| 20260901041805 | 78 | 70 | 0.0 | 0.0 | 0.00 | 1.10 | 1.10 | 100 | 1018.7 |
| 20260901041305 | 78 | 70 | 0.0 | 0.0 | 0.00 | 1.10 | 1.10 | 100 | 1018.6 |
| 20260901040805 | 78 | 70 | 0.0 | 0.0 | 0.00 | 1.10 | 1.10 | 100 | 1018.7 |
| 20260901040305 | 78 | 70 | 0.0 | 0.0 | 0.00 | 1.10 | 1.10 | 100 | 1018.7 |
| 20260901035805 | 78 | 70 | 0.0 | 0.0 | 0.00 | 1.10 | 1.10 | 100 | 1018.7 |
| 20260901035306 | 78 | 70 | 0.0 | 0.0 | 0.00 | 1.10 | 1.10 | 100 | 1018.7 |
| 20260901034805 | 78 | 70 | 0.0 | 0.0 | 0.00 | 1.10 | 1.10 | 100 | 1018.8 |
| 20260901034305 | 78 | 70 | 0.0 | 0.0 | 0.00 | 1.10 | 1.10 | 100 | 1018.8 |
| 20260901033805 | 78 | 70 | 0.0 | 0.0 | 0.00 | 1.10 | 1.10 | 100 | 1018.8 |
| 20260901033305 | 78 | 70 | 0.0 | 0.0 | 0.00 | 1.10 | 1.10 | 100 | 1018.8 |
| 20260901032805 | 78 | 70 | 0.0 | 0.0 | 0.00 | 1.10 | 1.10 | 100 | 1018.8 |
| 20260901032306 | 78 | 70 | 0.0 | 0.0 | 0.00 | 1.10 | 1.10 | 100 | 1018.9 |
| 20260901031805 | 78 | 70 | 0.0 | 0.0 | 0.00 | 1.10 | 1.10 | 100 | 1018.8 |
| 20260901031305 | 78 | 70 | 0.0 | 0.0 | 0.00 | 1.10 | 1.10 | 100 | 1018.9 |
| 20260901030805 | 78 | 70 | 0.0 | 0.0 | 0.00 | 1.10 | 1.10 | 100 | 1018.7 |
| 20260901030305 | 78 | 70 | 0.0 | 0.0 | 0.00 | 1.10 | 1.10 | 100 | 1018.7 |
| 20260901030135 | 78 | 70 | 0.0 | 0.0 | 0.00 | 1.10 | 1.10 | 100 | 1018.7 |
| 20260901025805 | 78 | 70 | 0.0 | 0.0 | 0.00 | 1.10 | 1.10 | 100 | 1018.7 |
| 20260901025306 | 78 | 70 | 0.0 | 0.0 | 0.00 | 1.10 | 1.10 | 100 | 1018.8 |
| 20260901024805 | 78 | 70 | 0.0 | 0.0 | 0.00 | 1.10 | 1.10 | 100 | 1018.7 |
| 20260901024305 | 78 | 70 | 0.0 | 0.0 | 0.00 | 1.10 | 1.10 | 100 | 1018.7 |
| 20260901023805 | 79 | 70 | 0.0 | 0.0 | 0.00 | 1.10 | 1.10 | 100 | 1018.7 |
| 20260901023305 | 79 | 70 | 0.0 | 0.0 | 0.00 | 1.10 | 1.10 | 100 | 1018.7 |
| 20260901022805 | 79 | 70 | 0.0 | 0.0 | 0.00 | 1.10 | 1.10 | 100 | 1018.8 |
| 20260901022306 | 79 | 70 | 0.0 | 0.0 | 0.00 | 1.10 | 1.10 | 100 | 1018.8 |
| 20260901021805 | 79 | 70 | 0.0 | 0.0 | 0.00 | 1.10 | 1.10 | 100 | 1018.8 |
| 20260901021305 | 79 | 70 | 0.0 | 0.0 | 0.00 | 1.10 | 1.10 | 100 | 1018.7 |
| 20260901020805 | 79 | 70 | 0.0 | 0.0 | 0.00 | 1.10 | 1.10 | 100 | 1018.6 |
| 20260901020305 | 79 | 70 | 0.0 | 0.0 | 0.00 | 1.10 | 1.10 | 100 | 1018.5 |
| 20260901020128 | 79 | 70 | 0.0 | 0.0 | 0.00 | 1.10 | 1.10 | 100 | 1018.4 |
| 20260901015805 | 79 | 70 | 0.0 | 0.0 | 0.00 | 1.10 | 1.10 | 100 | 1018.4 |
| 20260901015306 | 79 | 70 | 0.0 | 0.0 | 0.00 | 1.10 | 1.10 | 100 | 1018.5 |
| 20260901014805 | 79 | 70 | 0.0 | 0.0 | 0.00 | 1.10 | 1.10 | 100 | 1018.4 |
| 20260901014601 | 79 | 70 | 0.0 | 0.0 | 0.00 | 1.10 | 1.10 | 100 | 1018.5 |
| 20260901014305 | 79 | 70 | 0.0 | 0.0 | 0.00 | 1.10 | 1.10 | 100 | 1018.5 |
| 20260901013805 | 79 | 70 | 0.0 | 0.0 | 0.01 | 1.10 | 1.10 | 100 | 1018.4 |
| 20260901013305 | 79 | 70 | 0.0 | 0.0 | 0.01 | 1.10 | 1.10 | 100 | 1018.4 |
| 20260901012805 | 79 | 70 | 0.0 | 0.0 | 0.01 | 1.10 | 1.10 | 100 | 1018.4 |
| 20260901012306 | 79 | 70 | 0.0 | 0.0 | 0.01 | 1.10 | 1.10 | 100 | 1018.4 |
| 20260901011805 | 79 | 70 | 0.0 | 0.0 | 0.01 | 1.10 | 1.10 | 100 | 1018.5 |
| 20260901011305 | 79 | 70 | 0.0 | 0.0 | 0.02 | 1.10 | 1.10 | 100 | 1018.5 |
| 20260901010805 | 79 | 70 | 0.0 | 0.0 | 0.03 | 1.10 | 1.10 | 100 | 1018.3 |
| 20260901010305 | 79 | 70 | 0.0 | 0.0 | 0.04 | 1.10 | 1.10 | 100 | 1018.3 |
| 20260901005805 | 79 | 70 | 0.0 | 0.0 | 0.04 | 1.10 | 1.10 | 100 | 1018.3 |
| 20260901005307 | 79 | 70 | 0.0 | 0.0 | 0.04 | 1.10 | 1.10 | 100 | 1018.2 |
| 20260901004805 | 79 | 70 | 0.0 | 0.0 | 0.04 | 1.10 | 1.10 | 100 | 1018.2 |
| 20260901004305 | 79 | 70 | 0.0 | 0.0 | 0.04 | 1.10 | 1.10 | 100 | 1018.2 |
| 20260901003805 | 79 | 70 | 0.0 | 0.0 | 0.03 | 1.09 | 1.09 | 100 | 1018.0 |
| 20260901003305 | 79 | 70 | 0.0 | 0.0 | 0.03 | 1.09 | 1.09 | 100 | 1017.9 |
| 20260901002805 | 80 | 70 | 0.0 | 0.0 | 0.03 | 1.09 | 1.09 | 100 | 1018.1 |
| 20260901002306 | 80 | 70 | 0.0 | 0.0 | 0.03 | 1.09 | 1.09 | 100 | 1017.8 |
| 20260901001806 | 80 | 70 | 0.0 | 0.0 | 0.03 | 1.09 | 1.09 | 100 | 1017.9 |
| 20260901001306 | 80 | 70 | 0.0 | 0.0 | 0.02 | 1.08 | 1.08 | 100 | 1017.9 |
| 20260901000805 | 80 | 70 | 0.0 | 0.0 | 0.01 | 1.07 | 1.07 | 100 | 1018.0 |
| 20260901000306 | 80 | 70 | 0.0 | 0.0 | 0.00 | 1.06 | 1.06 | 100 | 1018.1 |
| 20260901000155 | 80 | 70 | 0.0 | 0.0 | 0.00 | 1.06 | 1.06 | 100 | 1018.0 |
| 20260831235806 | 80 | 70 | 0.0 | 0.0 | 0.00 | 1.06 | 1.06 | 100 | 1018.0 |
| 20260831235306 | 80 | 70 | 0.0 | 0.0 | 0.00 | 1.06 | 1.06 | 100 | 1017.9 |
| 20260831234806 | 80 | 70 | 0.0 | 0.0 | 0.01 | 1.06 | 1.06 | 100 | 1017.8 |
| 20260831234306 | 80 | 70 | 0.0 | 0.0 | 0.01 | 1.06 | 1.06 | 100 | 1017.9 |
| 20260831233806 | 80 | 70 | 0.0 | 0.0 | 0.01 | 1.06 | 1.06 | 100 | 1017.9 |
| 20260831233306 | 80 | 70 | 0.0 | 0.0 | 0.01 | 1.06 | 1.06 | 100 | 1018.0 |
| 20260831233203 | 80 | 70 | 0.0 | 0.0 | 0.02 | 1.06 | 1.06 | 100 | 1018.2 |
| 20260831232806 | 80 | 70 | 0.0 | 0.0 | 0.02 | 1.06 | 1.06 | 100 | 1018.2 |
| 20260831232306 | 80 | 70 | 0.0 | 0.0 | 0.03 | 1.06 | 1.06 | 100 | 1018.3 |
| 20260831231806 | 80 | 70 | 0.0 | 0.0 | 0.06 | 1.06 | 1.06 | 100 | 1018.3 |
| 20260831231306 | 80 | 70 | 0.0 | 0.0 | 0.13 | 1.06 | 1.06 | 100 | 1018.3 |
| 20260831230806 | 80 | 70 | 0.0 | 0.0 | 0.22 | 1.06 | 1.06 | 100 | 1018.3 |
| 20260831230306 | 80 | 70 | 0.0 | 0.0 | 0.28 | 1.07 | 1.06 | 100 | 1018.4 |
| 20260831225806 | 80 | 70 | 0.0 | 0.0 | 0.40 | 1.07 | 1.06 | 100 | 1018.5 |
| 20260831225306 | 80 | 70 | 0.0 | 0.0 | 0.55 | 1.07 | 1.06 | 100 | 1018.5 |
| 20260831224806 | 80 | 70 | 0.0 | 4.0 | 0.67 | 1.06 | 1.05 | 100 | 1018.4 |
| 20260831224306 | 79 | 35 | 0.0 | 4.0 | 0.78 | 1.06 | 1.05 | 100 | 1018.4 |
| 20260831223806 | 79 | 87 | 0.0 | 5.0 | 0.93 | 1.06 | 1.05 | 100 | 1018.3 |
| 20260831223306 | 79 | 88 | 4.0 | 6.0 | 1.05 | 1.06 | 1.05 | 100 | 1018.3 |
| 20260831222806 | 79 | 84 | 4.0 | 6.0 | 1.04 | 1.05 | 1.04 | 100 | 1018.1 |
| 20260831222306 | 79 | 56 | 0.0 | 7.0 | 1.03 | 1.04 | 1.03 | 100 | 1018.0 |
| 20260831221806 | 78 | 82 | 4.0 | 12.0 | 1.00 | 1.01 | 1.00 | 100 | 1017.8 |
| 20260831221306 | 78 | 102 | 8.0 | 8.0 | 0.93 | 0.94 | 0.93 | 100 | 1018.0 |
| 20260831220806 | 78 | 88 | 3.0 | 11.0 | 0.84 | 0.85 | 0.84 | 100 | 1018.0 |
| 20260831220306 | 77 | 101 | 11.0 | 14.0 | 0.78 | 0.79 | 0.78 | 100 | 1017.9 |
| 20260831215806 | 77 | 102 | 6.0 | 11.0 | 0.66 | 0.67 | 0.66 | 100 | 1017.9 |
| 20260831215306 | 77 | 74 | 9.0 | 15.0 | 0.51 | 0.52 | 0.51 | 100 | 1018.0 |
| 20260831214806 | 78 | 133 | 7.0 | 15.0 | 0.38 | 0.39 | 0.38 | 100 | 1018.0 |
| 20260831214306 | 79 | 59 | 6.0 | 15.0 | 0.27 | 0.28 | 0.27 | 100 | 1018.0 |
| 20260831213806 | 80 | 88 | 10.0 | 10.0 | 0.12 | 0.13 | 0.12 | 100 | 1018.0 |
| 20260831213306 | 81 | 82 | 9.0 | 11.0 | 0.00 | 0.01 | 0.00 | 100 | 1017.7 |
| 20260831212806 | 80 | 68 | 9.0 | 18.0 | 0.00 | 0.01 | 0.00 | 100 | 1017.7 |
| 20260831212307 | 85 | 57 | 12.0 | 16.0 | 0.00 | 0.01 | 0.00 | 100 | 1017.6 |
| 20260831211806 | 87 | 64 | 6.0 | 13.0 | 0.00 | 0.01 | 0.00 | 100 | 1017.5 |
| 20260831211306 | 90 | 101 | 2.0 | 5.0 | 0.00 | 0.01 | 0.00 | 100 | 1017.1 |
| 20260831210806 | 91 | 16 | 4.0 | 11.0 | 0.00 | 0.01 | 0.00 | 100 | 1017.0 |
| 20260831210306 | 91 | 326 | 4.0 | 11.0 | 0.00 | 0.05 | 0.00 | 100 | 1016.8 |
| 20260831205806 | 92 | 291 | 4.0 | 13.0 | 0.00 | 0.05 | 0.00 | 100 | 1016.8 |
| 20260831205306 | 92 | 317 | 4.0 | 11.0 | 0.00 | 0.05 | 0.00 | 100 | 1016.7 |
| 20260831204806 | 92 | 265 | 7.0 | 10.0 | 0.00 | 0.05 | 0.00 | 100 | 1016.9 |
| 20260831204306 | 92 | 341 | 6.0 | 13.0 | 0.00 | 0.05 | 0.00 | 100 | 1016.9 |
| 20260831203806 | 92 | 310 | 9.0 | 16.0 | 0.00 | 0.05 | 0.00 | 100 | 1016.8 |
| 20260831203307 | 92 | 299 | 5.0 | 9.0 | 0.00 | 0.05 | 0.00 | 100 | 1016.7 |
| 20260831202807 | 91 | 270 | 6.0 | 13.0 | 0.00 | 0.05 | 0.00 | 100 | 1016.8 |
| 20260831202306 | 91 | 307 | 7.0 | 12.0 | 0.00 | 0.05 | 0.00 | 100 | 1016.9 |
| 20260831201807 | 91 | 313 | 1.0 | 8.0 | 0.00 | 0.05 | 0.00 | 100 | 1016.9 |
| 20260831201307 | 91 | 331 | 5.0 | 8.0 | 0.00 | 0.05 | 0.00 | 100 | 1016.8 |
| 20260831200807 | 91 | 345 | 6.0 | 8.0 | 0.00 | 0.05 | 0.00 | 100 | 1016.9 |
| 20260831200631 | 91 | 9 | 2.0 | 6.0 | 0.00 | 0.34 | 0.00 | 100 | 1016.8 |
| 20260831200307 | 91 | 9 | 2.0 | 6.0 | 0.00 | 0.34 | 0.00 | 100 | 1016.8 |
| 20260831195807 | 92 | 358 | 3.0 | 5.0 | 0.00 | 0.34 | 0.00 | 100 | 1016.8 |
| 20260831195307 | 92 | 16 | 0.0 | 3.0 | 0.00 | 0.34 | 0.00 | 100 | 1016.8 |
| 20260831194807 | 93 | 1 | 2.0 | 4.0 | 0.00 | 0.34 | 0.00 | 100 | 1016.8 |
| 20260831194307 | 93 | 47 | 1.0 | 4.0 | 0.00 | 0.34 | 0.00 | 100 | 1016.8 |
| 20260831193807 | 94 | 305 | 0.0 | 4.0 | 0.00 | 0.34 | 0.00 | 100 | 1016.8 |
| 20260831193307 | 95 | 260 | 0.0 | 2.0 | 0.00 | 0.34 | 0.00 | 100 | 1016.8 |
| 20260831192807 | 95 | 234 | 2.0 | 6.0 | 0.00 | 0.34 | 0.00 | 100 | 1016.8 |
| 20260831192307 | 94 | 275 | 3.0 | 6.0 | 0.00 | 0.34 | 0.00 | 100 | 1016.9 |
| 20260831191807 | 93 | 153 | 3.0 | 6.0 | 0.00 | 0.34 | 0.00 | 100 | 1017.0 |
| 20260831191307 | 93 | 189 | 3.0 | 5.0 | 0.00 | 0.34 | 0.00 | 100 | 1016.9 |
| 20260831190807 | 92 | 206 | 4.0 | 8.0 | 0.00 | 0.34 | 0.00 | 100 | 1016.9 |
| 20260831190307 | 93 | 106 | 3.0 | 4.0 | 0.00 | 0.88 | 0.00 | 100 | 1017.0 |
| 20260831185807 | 93 | 18 | 0.0 | 5.0 | 0.00 | 0.88 | 0.00 | 100 | 1017.0 |
| 20260831185307 | 94 | 250 | 3.0 | 5.0 | 0.00 | 0.88 | 0.00 | 100 | 1017.1 |
| 20260831184807 | 95 | 187 | 4.0 | 7.0 | 0.00 | 0.88 | 0.00 | 100 | 1017.2 |
| 20260831184307 | 96 | 201 | 3.0 | 5.0 | 0.00 | 0.88 | 0.00 | 100 | 1017.2 |
| 20260831183807 | 95 | 210 | 2.0 | 5.0 | 0.00 | 0.88 | 0.00 | 100 | 1017.4 |
| 20260831183307 | 95 | 234 | 3.0 | 4.0 | 0.00 | 0.88 | 0.00 | 100 | 1017.5 |
| 20260831182807 | 96 | 222 | 4.0 | 6.0 | 0.00 | 0.88 | 0.00 | 100 | 1017.6 |
| 20260831182307 | 101 | 271 | 3.0 | 6.0 | 0.00 | 0.88 | 0.00 | 100 | 1017.7 |
| 20260831181807 | 100 | 11 | 0.0 | 1.0 | 0.00 | 0.88 | 0.00 | 100 | 1017.8 |
| 20260831181307 | 97 | 147 | 1.0 | 3.0 | 0.00 | 0.88 | 0.00 | 100 | 1017.9 |
| 20260831180807 | 97 | 106 | 3.0 | 4.0 | 0.00 | 0.88 | 0.00 | 100 | 1017.9 |
| 20260831180307 | 105 | 60 | 4.0 | 8.0 | 0.00 | 0.88 | 0.00 | 100 | 1017.9 |
| 20260831175807 | 117 | 206 | 0.0 | 3.0 | 0.00 | 0.88 | 0.00 | 100 | 1017.9 |
| 20260831175307 | 110 | 57 | 1.0 | 8.0 | 0.00 | 0.88 | 0.00 | 100 | 1018.0 |
| 20260831174807 | 107 | 232 | 1.0 | 7.0 | 0.00 | 0.88 | 0.00 | 100 | 1018.0 |
| 20260831174307 | 115 | 106 | 2.0 | 9.0 | 0.00 | 0.88 | 0.00 | 100 | 1018.1 |
| 20260831173807 | 115 | 219 | 8.0 | 9.0 | 0.00 | 0.88 | 0.00 | 100 | 1018.1 |
| 20260831173307 | 113 | 225 | 6.0 | 8.0 | 0.00 | 0.88 | 0.00 | 100 | 1018.2 |
| 20260831172807 | 111 | 194 | 7.0 | 7.0 | 0.00 | 0.88 | 0.00 | 100 | 1018.2 |
| 20260831172307 | 108 | 171 | 4.0 | 8.0 | 0.00 | 0.88 | 0.00 | 100 | 1018.2 |
| 20260831171807 | 113 | 243 | 0.0 | 7.0 | 0.00 | 0.88 | 0.00 | 100 | 1018.3 |
| 20260831171307 | 113 | 163 | 5.0 | 8.0 | 0.00 | 0.88 | 0.00 | 100 | 1018.4 |
| 20260831170807 | 115 | 182 | 4.0 | 8.0 | 0.00 | 0.88 | 0.00 | 100 | 1018.5 |
| 20260831170308 | 112 | 153 | 4.0 | 6.0 | 0.00 | 0.88 | 0.00 | 100 | 1018.6 |
| 20260831165807 | 103 | 147 | 3.0 | 5.0 | 0.00 | 0.88 | 0.00 | 100 | 1018.8 |
| 20260831165307 | 98 | 52 | 3.0 | 6.0 | 0.00 | 0.88 | 0.00 | 100 | 1018.8 |